Location: Oshawa
(43.9000°N, 78.8670°W)
Time: 11:53:22
(UTC-04:00)

Amateur Radio Satellites - All Passes

Search period start: 20 April 2014 11:23
Search period end: 21 April 2014 11:23
Location: Oshawa, 43.9000°N, 78.8670°W

Satellite Date Start Highest point End Downlink Frequencies (MHz)
Time Altitude Azimuth
FUNcube-1 20 Apr 11:24:58 11:28:56 37° 98° (E) 11:32:59 145.950 - 145.970 MHz USB
Oscar 11 20 Apr 11:32:17 11:36:35 58° 287° (WNW) 11:40:52 145.825 FM, Beacon 2401.500 USB
PCSat 20 Apr 11:39:14 11:42:39 17° 255° (WSW) 11:46:04 145.825 MHz
HO-68 20 Apr 12:08:10 12:14:15 31° 301° (WNW) 12:20:19 435.675 MHz FM
KITSAT 1 20 Apr 12:10:51 12:19:01 80° 56° (ENE) 12:27:05 435.175 FM
Oscar 16 20 Apr 12:15:17 12:16:48 11° 55° (NE) 12:18:18 437.025 USB, Beacon 2401.1428
RS-15 20 Apr 12:16:56 12:25:28 25° 1° (N) 12:33:58 29.354 - 29.394 USB, Beacon 29.352 USB
Saudisat 1A 20 Apr 12:47:42 12:51:36 29° 316° (NW) 12:55:31 436.775 MHz
Uribyol 2 20 Apr 12:51:21 12:53:40 13° 57° (ENE) 12:55:58 436.500 FM
FUNcube-1 20 Apr 13:01:56 13:05:09 21° 294° (WNW) 13:08:25 145.950 - 145.970 MHz USB
AO-27 20 Apr 13:29:40 13:33:58 27° 64° (ENE) 13:38:16 436.795 MHz FM
AO-Echo 20 Apr 13:37:16 13:41:25 25° 65° (ENE) 13:45:30 ?
ITAMSAT 1 20 Apr 13:39:48 13:44:21 32° 66° (ENE) 13:48:54 435.822 SSB
Oscar 19 20 Apr 13:41:46 13:46:48 59° 72° (ENE) 13:51:54 437.125 CW, 437.150 USB
Oscar 16 20 Apr 13:50:08 13:55:15 76° 74° (ENE) 14:00:26 437.025 USB, Beacon 2401.1428
AO-7 20 Apr 14:06:01 14:08:52 12° 39° (NE) 14:11:43 29.400 - 29.500 MHz
KITSAT 1 20 Apr 14:07:28 14:13:32 24° 256° (WSW) 14:19:35 435.175 FM
TMSAT-1 20 Apr 14:16:15 14:19:36 17° 60° (ENE) 14:22:57 436.925 FM
Uribyol 2 20 Apr 14:27:12 14:32:22 88° 76° (ENE) 14:37:34 436.500 FM
RS-15 20 Apr 14:31:41 14:41:51 41° 35° (NE) 14:52:06 29.354 - 29.394 USB, Beacon 29.352 USB
OPAL 20 Apr 14:51:00 14:53:42 14° 91° (E) 14:56:24 ?
ISS 20 Apr 15:00:48 15:03:27 22° 136° (SE) 15:06:07 145.800 FM
Oscar 10/S400 20 Apr 15:00:56 16:01:13 16° 271° (W) 17:36:52 145.825 - 145.975 CW/USB, Beacon 145.810 USB
Gurwin Techsat 1B 20 Apr 15:06:11 15:11:24 61° 72° (ENE) 15:16:39 435.225 FM
AO-27 20 Apr 15:08:23 15:13:17 42° 262° (W) 15:18:12 436.795 MHz FM
AO-Echo 20 Apr 15:14:55 15:19:56 46° 261° (W) 15:24:51 ?
ITAMSAT 1 20 Apr 15:19:06 15:23:47 34° 263° (W) 15:28:29 435.822 SSB
Oscar 19 20 Apr 15:23:06 15:26:33 18° 269° (W) 15:30:02 437.125 CW, 437.150 USB
Oscar 16 20 Apr 15:32:36 15:35:12 14° 271° (W) 15:37:49 437.025 USB, Beacon 2401.1428
Uosat F 20 Apr 15:34:51 15:39:15 31° 66° (ENE) 15:43:39 435.120 FM
SO-50 20 Apr 15:38:07 15:42:20 43° 118° (ESE) 15:46:37 436.795 FM
JAS-1B 20 Apr 15:38:24 15:46:00 53° 69° (ENE) 15:52:25 435.800 - 435.900 CW/SSB
AO-7 20 Apr 15:51:51 15:59:37 47° 61° (ENE) 16:07:25 29.400 - 29.500 MHz
TMSAT-1 20 Apr 15:53:40 15:58:56 72° 257° (WSW) 16:04:15 436.925 FM
Uribyol 2 20 Apr 16:10:46 16:12:32 12° 272° (W) 16:14:19 436.500 FM
OPAL 20 Apr 16:27:55 16:33:10 78° 288° (WNW) 16:38:22 ?
ISS 20 Apr 16:36:41 16:39:58 55° 333° (NNW) 16:43:17 145.800 FM
RS-15 20 Apr 16:44:14 16:55:08 74° 241° (WSW) 17:06:18 29.354 - 29.394 USB, Beacon 29.352 USB
Gurwin Techsat 1B 20 Apr 16:48:13 16:51:47 18° 269° (W) 16:55:23 435.225 FM
Uosat F 20 Apr 17:13:27 17:17:58 33° 263° (W) 17:22:31 435.120 FM
SO-50 20 Apr 17:19:14 17:23:04 27° 317° (NW) 17:26:56 436.795 FM
JAS-1B 20 Apr 17:29:52 17:36:46 31° 264° (W) 17:42:46 435.800 - 435.900 CW/SSB
Hamsat 20 Apr 17:38:27 17:41:29 20° 65° (ENE) 17:44:33 145.90 MHz
AO-7 20 Apr 17:44:44 17:52:28 43° 261° (W) 18:00:15 29.400 - 29.500 MHz
JAS-2 20 Apr 17:49:58 17:52:26 13° 58° (ENE) 17:54:50 435.800 - 435.900 CW/SSB, 435.910 FM
UOSAT-12 20 Apr 17:54:26 17:58:53 56° 120° (ESE) 18:03:26 437.025 FM, 437.400 FM
Saudisat 1A 20 Apr 17:55:44 17:56:45 11° 29° (NNE) 17:57:46 436.775 MHz
OPAL 20 Apr 18:09:05 18:11:11 13° 306° (NW) 18:13:18 ?
ISS 20 Apr 18:14:29 18:17:13 22° 353° (N) 18:19:57 145.800 FM
RS-15 20 Apr 18:59:13 19:05:29 17° 262° (W) 19:11:52 29.354 - 29.394 USB, Beacon 29.352 USB
STRAND 1 20 Apr 19:08:29 19:12:36 24° 94° (E) 19:16:40 ?
HO-68 20 Apr 19:08:39 19:10:25 11° 44° (NE) 19:12:12 435.675 MHz FM
Hamsat 20 Apr 19:13:15 19:17:12 40° 262° (W) 19:21:13 145.90 MHz
JAS-2 20 Apr 19:31:06 19:36:54 89° 76° (ENE) 19:42:13 435.800 - 435.900 CW/SSB, 435.910 FM
Saudisat 1A 20 Apr 19:33:10 19:37:28 48° 50° (NE) 19:41:42 436.775 MHz
UOSAT-12 20 Apr 19:35:39 19:39:22 24° 320° (NW) 19:43:09 437.025 FM, 437.400 FM
SO-67 20 Apr 19:48:24 19:51:54 80° 258° (WSW) 19:55:25 435.3500 MHz FM
ISS 20 Apr 19:51:49 19:54:42 26° 13° (NNE) 19:57:35 145.800 FM
STRAND 1 20 Apr 20:47:09 20:51:58 44° 291° (WNW) 20:56:46 ?
HO-68 20 Apr 20:49:40 20:56:29 51° 65° (ENE) 21:03:20 435.675 MHz FM
Oscar 11 20 Apr 20:54:51 20:57:06 14° 62° (ENE) 20:59:22 145.825 FM, Beacon 2401.500 USB
Saudisat 1A 20 Apr 21:13:29 21:16:45 21° 248° (WSW) 21:19:59 436.775 MHz
JAS-2 20 Apr 21:20:47 21:22:38 12° 271° (W) 21:24:27 435.800 - 435.900 CW/SSB, 435.910 FM
ISS 20 Apr 21:28:25 21:31:47 88° 32° (NNE) 21:35:09 145.800 FM
MaSat-1 20 Apr 22:19:36 22:22:19 45° 299° (WNW) 22:24:48 437.345 MHz
FUNcube-1 20 Apr 22:23:12 22:27:02 35° 70° (ENE) 22:30:50 145.950 - 145.970 MHz USB
Oscar 11 20 Apr 22:28:32 22:32:48 63° 259° (W) 22:37:06 145.825 FM, Beacon 2401.500 USB
SO-50 20 Apr 22:29:08 22:31:16 13° 31° (NNE) 22:33:25 436.795 FM
HO-68 20 Apr 22:38:04 22:44:23 34° 264° (W) 22:50:46 435.675 MHz FM
ISS 20 Apr 23:06:26 23:08:04 13° 229° (SW) 23:09:43 145.800 FM
Sapphire 20 Apr 23:54:27 23:58:18 20° 106° (ESE) 00:02:10 437.095 MHz 1200 baud AX-25 AFSK
FUNcube-1 21 Apr 00:00:26 00:03:34 20° 267° (W) 00:06:42 145.950 - 145.970 MHz USB
SO-50 21 Apr 00:08:12 00:12:48 59° 52° (NE) 00:17:27 436.795 FM
PCSat 21 Apr 00:37:31 00:42:42 50° 114° (ESE) 00:47:56 145.825 MHz
UOSAT-12 21 Apr 00:43:42 00:46:26 15° 33° (NNE) 00:49:10 437.025 FM, 437.400 FM
Oscar 10/S400 21 Apr 01:16:10 01:20:04 11° 125° (SE) 01:24:26 145.825 - 145.975 CW/USB, Beacon 145.810 USB
Sapphire 21 Apr 01:35:52 01:41:14 62° 304° (NW) 01:46:38 437.095 MHz 1200 baud AX-25 AFSK
SO-50 21 Apr 01:49:47 01:52:57 18° 249° (WSW) 01:56:09 436.795 FM
Oscar 19 21 Apr 01:52:56 01:56:36 19° 91° (E) 02:00:14 437.125 CW, 437.150 USB
Oscar 16 21 Apr 02:01:06 02:05:17 24° 93° (E) 02:09:28 437.025 USB, Beacon 2401.1428
OPAL 21 Apr 02:06:29 02:10:50 30° 63° (ENE) 02:15:15 ?
PCSat 21 Apr 02:21:41 02:26:22 29° 314° (NW) 02:31:05 145.825 MHz
UOSAT-12 21 Apr 02:22:42 02:27:27 72° 54° (NE) 02:32:08 437.025 FM, 437.400 FM
Uribyol 2 21 Apr 02:39:01 02:43:27 28° 95° (E) 02:47:51 436.500 FM
KITSAT 1 21 Apr 02:40:30 02:48:06 46° 112° (ESE) 02:55:43 435.175 FM
AO-27 21 Apr 03:19:37 03:24:47 63° 102° (ESE) 03:29:54 436.795 MHz FM
AO-Echo 21 Apr 03:20:50 03:25:30 51° 100° (E) 03:30:04 ?
Gurwin Techsat 1B 21 Apr 03:21:45 03:25:49 22° 92° (E) 03:29:52 435.225 FM
Sapphire 21 Apr 03:22:55 03:25:47 14° 326° (NW) 03:28:40 437.095 MHz 1200 baud AX-25 AFSK
ITAMSAT 1 21 Apr 03:29:53 03:35:05 77° 103° (ESE) 03:40:15 435.822 SSB
Oscar 19 21 Apr 03:31:12 03:36:18 57° 289° (WNW) 03:41:23 437.125 CW, 437.150 USB
Oscar 16 21 Apr 03:39:54 03:44:50 45° 291° (WNW) 03:49:45 437.025 USB, Beacon 2401.1428
OPAL 21 Apr 03:44:58 03:49:36 37° 261° (W) 03:54:20 ?
AO-7 21 Apr 03:55:42 03:57:36 11° 84° (E) 03:59:30 29.400 - 29.500 MHz
UOSAT-12 21 Apr 04:04:21 04:07:02 15° 251° (WSW) 04:09:41 437.025 FM, 437.400 FM
TMSAT-1 21 Apr 04:08:15 04:13:15 41° 98° (E) 04:18:14 436.925 FM
Uribyol 2 21 Apr 04:18:14 04:23:01 39° 292° (WNW) 04:27:47 436.500 FM
KITSAT 1 21 Apr 04:35:42 04:43:30 48° 313° (NW) 04:51:20 435.175 FM
AO-27 21 Apr 05:00:16 05:03:48 19° 299° (WNW) 05:07:20 436.795 MHz FM
AO-Echo 21 Apr 05:00:33 05:03:54 19° 298° (WNW) 05:07:13 ?
Gurwin Techsat 1B 21 Apr 05:00:56 05:06:04 51° 290° (WNW) 05:11:11 435.225 FM
RS-15 21 Apr 05:04:32 05:09:22 14° 96° (E) 05:14:07 29.354 - 29.394 USB, Beacon 29.352 USB
ITAMSAT 1 21 Apr 05:10:55 05:13:57 16° 301° (WNW) 05:16:59 435.822 SSB
JAS-1B 21 Apr 05:11:48 05:17:28 68° 103° (ESE) 05:23:22 435.800 - 435.900 CW/SSB
Uosat F 21 Apr 05:19:06 05:24:06 67° 102° (ESE) 05:29:04 435.120 FM
AO-7 21 Apr 05:43:47 05:52:02 62° 104° (ESE) 06:00:15 29.400 - 29.500 MHz
TMSAT-1 21 Apr 05:48:33 05:53:00 28° 295° (WNW) 05:57:26 436.925 FM
STRAND 1 21 Apr 06:25:38 06:30:23 41° 68° (ENE) 06:35:09 ?
KITSAT 1 21 Apr 06:35:49 06:41:11 19° 339° (NNW) 06:46:34 435.175 FM
MaSat-1 21 Apr 06:40:54 06:43:41 37° 60° (ENE) 06:46:54 437.345 MHz
Hamsat 21 Apr 06:57:38 07:01:33 32° 96° (E) 07:05:27 145.90 MHz
Uosat F 21 Apr 06:59:12 07:02:21 17° 300° (WNW) 07:05:30 435.120 FM
JAS-1B 21 Apr 07:03:56 07:07:38 18° 302° (WNW) 07:11:22 435.800 - 435.900 CW/SSB
RS-15 21 Apr 07:08:18 07:19:26 66° 116° (ESE) 07:30:12 29.354 - 29.394 USB, Beacon 29.352 USB
AO-7 21 Apr 07:37:11 07:44:22 34° 304° (WNW) 07:51:34 29.400 - 29.500 MHz
PCSat 21 Apr 07:42:08 07:44:37 13° 32° (NNE) 07:47:04 145.825 MHz
STRAND 1 21 Apr 08:05:27 08:09:42 26° 265° (W) 08:13:58 ?
MaSat-1 21 Apr 08:20:42 08:21:55 12° 251° (WSW) 08:23:11 437.345 MHz
JAS-2 21 Apr 08:22:21 08:27:45 69° 103° (ESE) 08:33:43 435.800 - 435.900 CW/SSB, 435.910 FM
Hamsat 21 Apr 08:33:50 08:37:25 26° 293° (WNW) 08:41:00 145.90 MHz
KITSAT 1 21 Apr 08:35:59 08:40:29 15° 10° (N) 08:44:59 435.175 FM
Sapphire 21 Apr 08:39:36 08:44:08 26° 45° (NE) 08:48:38 437.095 MHz 1200 baud AX-25 AFSK
SO-67 21 Apr 08:44:39 08:48:10 78° 283° (WNW) 08:51:39 435.3500 MHz FM
RS-15 21 Apr 09:21:49 09:32:22 45° 321° (NW) 09:42:45 29.354 - 29.394 USB, Beacon 29.352 USB
PCSat 21 Apr 09:23:57 09:29:18 54° 54° (NE) 09:34:36 145.825 MHz
HO-68 21 Apr 10:03:06 10:09:57 45° 99° (E) 10:16:45 435.675 MHz FM
JAS-2 21 Apr 10:08:52 10:12:27 18° 299° (WNW) 10:16:14 435.800 - 435.900 CW/SSB, 435.910 FM
Oscar 11 21 Apr 10:15:29 10:18:51 21° 93° (E) 10:22:11 145.825 FM, Beacon 2401.500 USB
Sapphire 21 Apr 10:22:36 10:27:55 58° 244° (WSW) 10:33:12 437.095 MHz 1200 baud AX-25 AFSK
KITSAT 1 21 Apr 10:31:46 10:38:56 33° 39° (NE) 10:46:02 435.175 FM
PCSat 21 Apr 11:08:07 11:12:20 24° 253° (WSW) 11:16:32 145.825 MHz
